This demonstration page uses our WeatherBlox Daily Observations layout. Learn more.

Left ArrowRight Arrow

47.50024, -111.30081

Hourly Observations for May 21, 2021

Temp ( °F °C ) Dew Point ( °F °C ) Humidity (%) Winds ( mph kmh ) Pressure ( in mb ) Visibility ( mi km ) Precip ( " mm )
12:53 am 00:53 Cloudy with Light Snow 27 -2.8 25 -3.9 92 92 N 9 15 30.31 1026 7 11 0.00 0.00
1:53 am 01:53 Cloudy with Light Snow 26 -3.3 25 -3.9 96 96 N 8 13 30.29 1026 5 8 0.01 0.25
2:53 am 02:53 Cloudy 27 -2.8 25 -3.9 92 92 N 6 9 30.27 1025 10 16 0.00 0.00
3:42 am 03:42 Cloudy with Light Snow 26 -3.3 25 -3.9 96 96 WNW 7 11 30.33 1027 3 4 0.00 0.00
3:53 am 03:53 Cloudy with Light Snow 26 -3.3 25 -3.9 96 96 NW 6 9 30.30 1026 2 2 0.01 0.25
3:59 am 03:59 Cloudy with Light Snow 26 -3.3 25 -3.9 96 96 NW 6 9 30.33 1027 1 1 0.01 0.25
4:11 am 04:11 Cloudy with Light Snow 26 -3.3 25 -3.9 96 96 NNW 6 9 30.33 1027 1 1 0.02 0.51
4:53 am 04:53 Mostly Cloudy with Light Snow 26 -3.3 25 -3.9 96 96 NNW 9 15 30.30 1026 1 1 0.05 1.27
5:06 am 05:06 Cloudy with Light Snow 26 -3.3 25 -3.9 96 96 NNW 8 13 30.33 1027 1 1 0.02 0.51
5:26 am 05:26 Cloudy with Light Snow 26 -3.3 25 -3.9 96 96 NNW 8 13 30.33 1027 1 1 0.03 0.76
5:50 am 05:50 Cloudy with Light Snow 27 -3 25 -4 93 93 N 9 15 30.34 1027 1 1 0.04 1.02
5:53 am 05:53 Cloudy with Light Snow 26 -3.3 25 -3.9 96 96 N 10 17 30.32 1027 1 1 0.04 1.02
6:05 am 06:05 Cloudy with Light Snow 26 -3.3 24 -4.4 92 92 NNW 8 13 30.34 1028 1 1 0.01 0.25
6:18 am 06:18 Cloudy with Light Snow 26 -3.3 25 -3.9 96 96 N 10 17 30.33 1027 1 1 0.01 0.25
6:43 am 06:43 Cloudy with Light Snow 26 -3.3 24 -4.4 92 92 N 12 19 30.34 1028 2 2 0.02 0.51
6:53 am 06:53 Cloudy with Mist and Fog 26 -3.3 25 -3.9 96 96 N 6 9 30.33 1027 5 8 0.02 0.51
7:20 am 07:20 Cloudy with Light Snow 27 -2.8 24 -4.4 89 89 N 9 15 30.34 1028 7 11 0.00 0.00
7:53 am 07:53 Cloudy 27 -2.8 24 -4.4 89 89 NNE 8 13 30.34 1028 10 16 0.00 0.00
8:10 am 08:10 Cloudy 27 -2.8 24 -4.4 89 89 N 9 15 30.35 1028 10 16 0.00 0.00
8:53 am 08:53 Cloudy 28 -2.2 24 -4.4 85 85 N 8 13 30.35 1028 10 16 0.00 0.00
9:53 am 09:53 Cloudy 29 -1.7 25 -3.9 85 85 N 6 9 30.37 1028 10 16 0.00 0.00
10:53 am 10:53 Cloudy 29 -1.7 25 -3.9 85 85 NNW 5 7 30.36 1028 10 16 0.00 0.00
11:42 am 11:42 Cloudy 30 -1.1 25 -3.9 82 82 NNW 3 6 30.36 1028 10 16 0.00 0.00
11:53 am 11:53 Cloudy 29 -1.7 25 -3.9 85 85 NW 5 7 30.38 1029 10 16 0.00 0.00
12:53 pm 12:53 Cloudy with Light Snow 30 -1.1 25 -3.9 82 82 N 6 9 30.37 1029 9 14 0.00 0.00
1:07 pm 13:07 Cloudy with Light Snow 30 -1.1 26 -3.3 85 85 NNE 8 13 30.36 1028 2 3 0.00 0.00
1:16 pm 13:16 Cloudy with Light Snow 30 -1.1 26 -3.3 85 85 NNE 9 15 30.36 1028 1 2 0.00 0.00
1:22 pm 13:22 Cloudy with Light Snow 30 -1.1 26 -3.3 85 85 NNE 8 13 30.37 1028 1 1 0.01 0.25
1:43 pm 13:43 Cloudy with Snow 30 -1.1 27 -2.8 88 88 NE 8 13 30.37 1028 1 1 0.02 0.51
1:53 pm 13:53 Cloudy with Light Snow 29 -1.7 26 -3.3 89 89 NE 9 15 30.38 1029 1 1 0.03 0.76
2:02 pm 14:02 Cloudy with Light Snow 30 -1.1 27 -2.8 88 88 NNE 8 13 30.36 1028 1 1 0.00 0.00
2:05 pm 14:05 Cloudy with Light Snow 30 -1.1 27 -2.8 88 88 N 10 17 30.36 1028 1 1 0.00 0.00
2:15 pm 14:15 Cloudy with Light Snow 30 -1.1 27 -2.8 88 88 N 8 13 30.36 1028 1 1 0.01 0.25
2:25 pm 14:25 Cloudy with Snow 30 -1.1 27 -2.8 88 88 N 8 13 30.36 1028 1 1 0.02 0.51
2:49 pm 14:49 Cloudy with Light Snow 30 -1 27 -3 86 86 N 9 15 30.36 1028 1 1 0.03 0.76
2:53 pm 14:53 Cloudy with Light Snow 30 -1.1 27 -2.8 88 88 N 9 15 30.38 1029 1 1 0.03 0.76
3:02 pm 15:02 Cloudy with Light Snow 30 -1.1 27 -2.8 88 88 N 9 15 30.37 1028 1 1 0.00 0.00
3:33 pm 15:33 Cloudy with Light Snow 30 -1.1 27 -2.8 88 88 N 10 17 30.36 1028 1 1 0.01 0.25
3:53 pm 15:53 Cloudy with Light Snow 30 -1.1 26 -3.3 85 85 NE 9 15 30.38 1029 1 1 0.02 0.51
4:00 pm 16:00 Cloudy with Light Snow 30 -1.1 26 -3.3 85 85 NNE 8 13 30.37 1028 1 1 0.00 0.00
4:06 pm 16:06 Cloudy with Light Snow 30 -1.1 27 -2.8 88 88 N 7 11 30.37 1028 2 2 0.00 0.00
4:19 pm 16:19 Cloudy with Light Snow 30 -1.1 26 -3.3 85 85 NNE 8 13 30.37 1028 3 5 0.00 0.00
4:26 pm 16:26 Cloudy with Mist and Fog 30 -1.1 26 -3.3 85 85 NNE 7 11 30.38 1029 5 8 0.00 0.00
4:46 pm 16:46 Cloudy 30 -1.1 26 -3.3 85 85 N 9 15 30.37 1028 8 13 0.00 0.00
4:53 pm 16:53 Cloudy 30 -1.1 26 -3.3 85 85 N 7 11 30.39 1029 10 16 0.00 0.00
5:22 pm 17:22 Cloudy 30 -1.1 26 -3.3 85 85 NNE 9 15 30.37 1028 10 16 0.00 0.00
5:38 pm 17:38 Cloudy 30 -1.1 26 -3.3 85 85 N 8 13 30.37 1028 8 13 0.00 0.00
5:44 pm 17:44 Cloudy 30 -1.1 26 -3.3 85 85 N 10 17 30.37 1028 7 11 0.00 0.00
5:53 pm 17:53 Cloudy with Mist and Fog 30 -1.1 26 -3.3 85 85 NNE 10 17 30.39 1029 6 10 0.00 0.00
6:01 pm 18:01 Cloudy 30 -1.1 26 -3.3 85 85 NNE 9 15 30.38 1029 8 13 0.00 0.00
6:11 pm 18:11 Cloudy 30 -1.1 27 -2.8 88 88 NE 8 13 30.38 1029 10 16 0.00 0.00
6:49 pm 18:49 Cloudy 30 -1 27 -3 86 86 NE 9 15 30.38 1029 10 16 0.00 0.00
6:53 pm 18:53 Cloudy 29 -1.7 26 -3.3 89 89 NE 9 15 30.40 1029 10 16 0.00 0.00
6:59 pm 18:59 Cloudy with Light Snow 29 -1.7 26 -3.3 89 89 NE 9 15 30.39 1029 7 11 0.00 0.00
7:06 pm 19:06 Cloudy with Light Snow 29 -1.7 26 -3.3 89 89 NNE 9 15 30.39 1029 3 4 0.00 0.00
7:10 pm 19:10 Cloudy with Light Snow 29 -1.7 26 -3.3 89 89 NNE 9 15 30.39 1029 2 3 0.01 0.25
7:28 pm 19:28 Cloudy with Light Snow 29 -1.7 26 -3.3 89 89 NNE 6 9 30.40 1029 2 2 0.02 0.51
7:37 pm 19:37 Cloudy with Light Snow 29 -1.7 26 -3.3 89 89 NE 7 11 30.40 1029 1 2 0.03 0.76
7:48 pm 19:48 Cloudy with Snow 28 -2 27 -3 93 93 NNE 7 11 30.40 1030 1 1 0.04 1.02
7:53 pm 19:53 Cloudy with Snow 29 -1.7 26 -3.3 89 89 NE 7 11 30.41 1030 1 1 0.04 1.02
8:01 pm 20:01 Cloudy with Snow 28 -2.2 26 -3.3 92 92 NE 8 13 30.41 1030 1 1 0.01 0.25
8:22 pm 20:22 Cloudy with Light Snow 28 -2.2 26 -3.3 92 92 NNE 8 13 30.40 1029 1 1 0.03 0.76
8:31 pm 20:31 Cloudy with Snow 28 -2.2 26 -3.3 92 92 NNE 8 13 30.41 1030 1 1 0.03 0.76
8:53 pm 20:53 Mostly Cloudy with Snow 28 -2.2 26 -3.3 92 92 NNE 6 9 30.42 1030 1 1 0.05 1.27
9:10 pm 21:10 Cloudy with Light Snow 28 -2.2 26 -3.3 92 92 NE 9 15 30.42 1030 1 1 0.01 0.25
9:44 pm 21:44 Cloudy with Light Snow 28 -2.2 26 -3.3 92 92 ENE 8 13 30.43 1030 1 1 0.03 0.76
9:53 pm 21:53 Cloudy with Light Snow 28 -2.2 26 -3.3 92 92 ENE 7 11 30.43 1031 1 1 0.03 0.76
9:56 pm 21:56 Cloudy with Light Snow 27 -2.8 26 -3.3 96 96 ENE 7 11 30.45 1031 2 2 0.00 0.00
10:11 pm 22:11 Cloudy with Light Snow 27 -2.8 25 -3.9 92 92 ENE 7 11 30.45 1031 2 2 0.01 0.25
10:53 pm 22:53 Cloudy with Light Snow 27 -2.8 26 -3.3 96 96 Calm 30.43 1031 1 2 0.03 0.76
11:01 pm 23:01 Cloudy with Light Snow 27 -2.8 26 -3.3 96 96 Calm 30.45 1031 2 2 0.00 0.00
11:06 pm 23:06 Cloudy with Light Snow 28 -2.2 26 -3.3 92 92 Calm 30.44 1031 2 2 0.00 0.00
11:34 pm 23:34 Cloudy with Light Snow 28 -2.2 26 -3.3 92 92 E 3 6 30.43 1030 2 2 0.00 0.00
11:53 pm 23:53 Cloudy with Light Snow 27 -2.8 26 -3.3 96 96 E 5 7 30.42 1030 2 2 0.01 0.25

Powered by AerisWeather